1545940800.69,47097,0.0,0.0,-3.61,-4.25,-4.25,0,*59
1545940801.92,47098,0.0,0.0,-3.59,-4.25,-4.33,0,*5A
1545940803.12,47099,0.0,0.0,-3.61,-4.29,-4.37,0,*58
1545940804.32,47100,0.0,0.0,-3.61,-4.29,-4.29,0,*56
1545940805.55,47101,0.0,0.0,-3.59,-4.25,-4.33,0,*5B
1545940806.76,47102,0.0,0.0,-3.61,-4.41,-4.37,0,*55
1545940807.96,47103,0.0,0.0,-3.61,-4.25,-4.33,0,*52
1545940809.18,47104,0.0,0.0,-3.59,-4.33,-4.33,0,*59
1545940810.38,47105,0.0,0.0,-3.61,-4.37,-4.37,0,*53
1545940811.61,47106,0.0,0.0,-3.59,-4.33,-4.33,0,*5B
1545940812.84,47107,0.0,0.0,-3.59,-4.33,-4.25,0,*5D
1545940814.06,47108,0.0,0.0,-3.59,-4.33,-4.25,0,*52
1545940815.29,47109,0.0,0.0,-3.59,-4.25,-4.33,0,*53
1545940816.49,47110,0.0,0.0,-3.61,-4.29,-4.37,0,*58
1545940817.7,47111,0.0,0.0,-3.61,-4.29,-4.37,0,*59
1545940818.9,47112,0.0,0.0,-3.61,-4.37,-4.37,0,*55
1545940820.1,47113,0.0,0.0,-3.61,-4.37,-4.37,0,*54
1545940821.33,47114,0.0,0.0,-3.59,-4.33,-4.37,0,*5C
1545940822.53,47115,0.0,0.0,-3.61,-4.33,-4.33,0,*52
1545940823.72,47116,0.0,0.0,-3.61,-4.37,-4.33,0,*55
1545940824.92,47117,0.0,0.0,-3.61,-4.41,-4.37,0,*51
1545940826.13,47118,0.0,0.0,-3.61,-4.41,-4.37,0,*5E
1545940827.35,47119,0.0,0.0,-3.59,-4.37,-4.33,0,*51
1545940828.55,47120,0.0,0.0,-3.61,-4.41,-4.37,0,*55
1545940829.75,47121,0.0,0.0,-3.61,-4.41,-4.29,0,*5B
1545940830.95,47122,0.0,0.0,-3.61,-4.37,-4.29,0,*59
1545940832.15,47123,0.0,0.0,-3.61,-4.37,-4.37,0,*57
1545940833.37,47124,0.0,0.0,-3.59,-4.33,-4.33,0,*5B
1545940834.6,47125,0.0,0.0,-3.59,-4.33,-4.33,0,*5A
1545940835.8,47126,0.0,0.0,-3.61,-4.37,-4.37,0,*52
1545940836.99,47127,0.0,0.0,-3.61,-4.37,-4.37,0,*53
1545940838.22,47128,0.0,0.0,-3.59,-4.33,-4.33,0,*57
1545940839.42,47129,0.0,0.0,-3.61,-4.37,-4.29,0,*52
1545940840.62,47130,0.0,0.0,-3.61,-4.29,-4.29,0,*55
1545940841.82,47131,0.0,0.0,-3.61,-4.37,-4.29,0,*5B
1545940843.02,47132,0.0,0.0,-3.61,-4.37,-4.29,0,*58
1545940844.22,47133,0.0,0.0,-3.61,-4.37,-4.29,0,*59
1545940845.42,47134,0.0,0.0,-3.61,-4.37,-4.37,0,*51
1545940846.64,47135,0.0,0.0,-3.59,-4.33,-4.33,0,*5B
1545940847.86,47136,0.0,0.0,-3.59,-4.37,-4.37,0,*58
1545940849.06,47137,0.0,0.0,-3.61,-4.37,-4.37,0,*52
1545940850.29,47138,0.0,0.0,-3.59,-4.33,-4.37,0,*52
1545940851.52,47139,0.0,0.0,-3.59,-4.33,-4.33,0,*57
1545940852.72,47140,0.0,0.0,-3.61,-4.29,-4.37,0,*5D
1545940853.95,47141,0.0,0.0,-3.59,-4.33,-4.37,0,*5C
1545940855.15,47142,0.0,0.0,-3.61,-4.41,-4.37,0,*51
1545940856.35,47143,0.0,0.0,-3.61,-4.37,-4.37,0,*51
1545940857.55,47144,0.0,0.0,-3.61,-4.37,-4.37,0,*56
1545940858.77,47145,0.0,0.0,-3.59,-4.37,-4.33,0,*58
1545940859.97,47146,0.0,0.0,-3.61,-4.41,-4.37,0,*55
1545940861.17,47147,0.0,0.0,-3.61,-4.37,-4.41,0,*54
1545940862.36,47148,0.0,0.0,-3.61,-4.37,-4.37,0,*5A
1545940863.57,47149,0.0,0.0,-3.61,-4.41,-4.37,0,*5A
1545940864.77,47150,0.0,0.0,-3.61,-4.37,-4.37,0,*53
1545940865.96,47151,0.0,0.0,-3.61,-4.37,-4.37,0,*52
1545940867.18,47152,0.0,0.0,-3.59,-4.37,-4.33,0,*5E
1545940868.38,47153,0.0,0.0,-3.61,-4.41,-4.41,0,*50
1545940869.58,47154,0.0,0.0,-3.61,-4.37,-4.37,0,*57
1545940870.78,47155,0.0,0.0,-3.61,-4.41,-4.37,0,*57
1545940872.01,47156,0.0,0.0,-3.59,-4.33,-4.37,0,*5A
1545940873.21,47157,0.0,0.0,-3.61,-4.37,-4.33,0,*50
1545940874.41,47158,0.0,0.0,-3.61,-4.41,-4.37,0,*5A
1545940875.61,47159,0.0,0.0,-3.61,-4.37,-4.37,0,*5A
1545940876.8,47160,0.0,0.0,-3.61,-4.37,-4.29,0,*5F
1545940878.01,47161,0.0,0.0,-3.61,-4.41,-4.37,0,*50
1545940879.21,47162,0.0,0.0,-3.61,-4.37,-4.29,0,*5D
1545940880.4,47163,0.0,0.0,-3.61,-4.37,-4.25,0,*50
1545940881.6,47164,0.0,0.0,-3.61,-4.37,-4.37,0,*54
1545940882.8,47165,0.0,0.0,-3.61,-4.37,-4.29,0,*5A
1545940884.0,47166,0.0,0.0,-3.61,-4.29,-4.29,0,*56
1545940885.2,47167,0.0,0.0,-3.61,-4.37,-4.29,0,*58
1545940886.4,47168,0.0,0.0,-3.61,-4.37,-4.37,0,*58
1545940887.6,47169,0.0,0.0,-3.61,-4.37,-4.37,0,*59
1545940888.8,47170,0.0,0.0,-3.61,-4.37,-4.37,0,*51
1545940890.0,47171,0.0,0.0,-3.61,-4.29,-4.37,0,*5F
1545940891.2,47172,0.0,0.0,-3.65,-4.41,-4.41,0,*57
1545940892.41,47173,0.0,0.0,-3.61,-4.29,-4.37,0,*5D
1545940893.61,47174,0.0,0.0,-3.61,-4.41,-4.29,0,*5B
1545940894.8,47175,0.0,0.0,-3.61,-4.37,-4.29,0,*5B
1545940896.0,47176,0.0,0.0,-3.65,-4.41,-4.41,0,*53
1545940897.21,47177,0.0,0.0,-3.65,-4.41,-4.41,0,*52
1545940898.4,47178,0.0,0.0,-3.65,-4.41,-4.33,0,*58
1545940899.6,47179,0.0,0.0,-3.65,-4.41,-4.33,0,*59
1545940900.8,47180,0.0,0.0,-3.65,-4.41,-4.33,0,*5F
1545940902.0,47181,0.0,0.0,-3.61,-4.37,-4.25,0,*5C
1545940903.2,47182,0.0,0.0,-3.61,-4.37,-4.29,0,*53
1545940904.4,47183,0.0,0.0,-3.61,-4.29,-4.41,0,*53
1545940905.6,47184,0.0,0.0,-3.61,-4.29,-4.25,0,*56
1545940906.8,47185,0.0,0.0,-3.61,-4.37,-4.29,0,*54
1545940908.01,47186,0.0,0.0,-3.61,-4.29,-4.29,0,*58
1545940909.21,47187,0.0,0.0,-3.65,-4.41,-4.41,0,*5D
1545940910.4,47188,0.0,0.0,-3.65,-4.41,-4.33,0,*57
1545940911.6,47189,0.0,0.0,-3.65,-4.41,-4.33,0,*56
1545940912.8,47190,0.0,0.0,-3.65,-4.41,-4.33,0,*5E
1545940914.03,47191,0.0,0.0,-3.67,-4.41,-4.45,0,*5C
1545940915.22,47192,0.0,0.0,-3.61,-4.37,-4.37,0,*5D
1545940916.43,47193,0.0,0.0,-3.61,-4.29,-4.41,0,*52
1545940917.63,47194,0.0,0.0,-3.61,-4.29,-4.37,0,*54
1545940918.83,47195,0.0,0.0,-3.61,-4.29,-4.37,0,*55
1545940920.03,47196,0.0,0.0,-3.61,-4.41,-4.37,0,*58
1545940921.23,47197,0.0,0.0,-3.61,-4.37,-4.37,0,*58
1545940922.43,47198,0.0,0.0,-3.61,-4.37,-4.37,0,*57
1545940923.63,47199,0.0,0.0,-3.61,-4.37,-4.37,0,*56
1545940924.83,47200,0.0,0.0,-3.61,-4.41,-4.41,0,*55
1545940926.03,47201,0.0,0.0,-3.61,-4.37,-4.41,0,*55
1545940927.23,47202,0.0,0.0,-3.65,-4.41,-4.41,0,*53
1545940928.42,47203,0.0,0.0,-3.65,-4.45,-4.41,0,*56
1545940929.62,47204,0.0,0.0,-3.65,-4.41,-4.45,0,*51
1545940930.83,47205,0.0,0.0,-3.67,-4.45,-4.45,0,*56
1545940932.03,47206,0.0,0.0,-3.65,-4.41,-4.45,0,*53
1545940933.22,47207,0.0,0.0,-3.65,-4.45,-4.41,0,*52
1545940934.45,47208,0.0,0.0,-3.67,-4.41,-4.33,0,*5E
1545940935.64,47209,0.0,0.0,-3.65,-4.45,-4.41,0,*5C
1545940936.84,47210,0.0,0.0,-3.65,-4.41,-4.41,0,*50
1545940938.04,47211,0.0,0.0,-3.65,-4.41,-4.41,0,*51
1545940939.24,47212,0.0,0.0,-3.65,-4.45,-4.41,0,*56
1545940940.46,47213,0.0,0.0,-3.67,-4.41,-4.41,0,*51
1545940941.66,47214,0.0,0.0,-3.65,-4.45,-4.41,0,*50
1545940942.86,47215,0.0,0.0,-3.65,-4.41,-4.33,0,*50
1545940944.08,47216,0.0,0.0,-3.67,-4.45,-4.41,0,*50
1545940945.28,47217,0.0,0.0,-3.65,-4.41,-4.33,0,*52
1545940946.48,47218,0.0,0.0,-3.65,-4.33,-4.41,0,*5D
1545940947.68,47219,0.0,0.0,-3.65,-4.41,-4.41,0,*59
1545940948.88,47220,0.0,0.0,-3.65,-4.41,-4.41,0,*53
1545940950.08,47221,0.0,0.0,-3.65,-4.45,-4.41,0,*56
1545940951.28,47222,0.0,0.0,-3.65,-4.41,-4.41,0,*51
1545940952.48,47223,0.0,0.0,-3.65,-4.41,-4.41,0,*50
1545940953.67,47224,0.0,0.0,-3.65,-4.41,-4.45,0,*53
1545940954.87,47225,0.0,0.0,-3.65,-4.41,-4.41,0,*56
1545940956.07,47226,0.0,0.0,-3.65,-4.45,-4.41,0,*51
1545940957.27,47227,0.0,0.0,-3.65,-4.41,-4.41,0,*54
1545940958.46,47228,0.0,0.0,-3.65,-4.45,-4.41,0,*5F
1545940959.66,47229,0.0,0.0,-3.65,-4.41,-4.45,0,*5E
1545940960.86,47230,0.0,0.0,-3.65,-4.41,-4.45,0,*56
1545940962.05,47231,0.0,0.0,-3.65,-4.45,-4.41,0,*57
1545940963.25,47232,0.0,0.0,-3.65,-4.41,-4.45,0,*54
1545940964.45,47233,0.0,0.0,-3.65,-4.41,-4.41,0,*51
1545940965.67,47234,0.0,0.0,-3.67,-4.41,-4.45,0,*50
1545940966.86,47235,0.0,0.0,-3.65,-4.41,-4.45,0,*53
1545940968.05,47236,0.0,0.0,-3.65,-4.45,-4.45,0,*54
1545940969.25,47237,0.0,0.0,-3.65,-4.45,-4.41,0,*51
1545940970.47,47238,0.0,0.0,-3.67,-4.45,-4.41,0,*5C
1545940971.69,47239,0.0,0.0,-3.67,-4.45,-4.41,0,*5D
1545940972.91,47240,0.0,0.0,-3.67,-4.41,-4.45,0,*53
1545940974.1,47241,0.0,0.0,-3.65,-4.45,-4.45,0,*54
1545940975.29,47242,0.0,0.0,-3.65,-4.45,-4.41,0,*53
1545940976.49,47243,0.0,0.0,-3.65,-4.45,-4.41,0,*52
1545940977.68,47244,0.0,0.0,-3.65,-4.41,-4.45,0,*55
1545940978.88,47245,0.0,0.0,-3.65,-4.45,-4.41,0,*54
1545940980.07,47246,0.0,0.0,-3.65,-4.45,-4.41,0,*57
1545940981.29,47247,0.0,0.0,-3.67,-4.45,-4.41,0,*54
1545940982.48,47248,0.0,0.0,-3.65,-4.45,-4.45,0,*5D
1545940983.67,47249,0.0,0.0,-3.65,-4.45,-4.41,0,*58
1545940984.87,47250,0.0,0.0,-3.65,-4.41,-4.41,0,*54
1545940986.07,47251,0.0,0.0,-3.65,-4.45,-4.41,0,*51
1545940987.26,47252,0.0,0.0,-3.65,-4.45,-4.41,0,*52
1545940988.46,47253,0.0,0.0,-3.65,-4.45,-4.41,0,*53
1545940989.68,47254,0.0,0.0,-3.67,-4.41,-4.45,0,*56
1545940990.9,47255,0.0,0.0,-3.67,-4.45,-4.45,0,*53
1545940992.11,47256,0.0,0.0,-3.67,-4.45,-4.41,0,*54
1545940993.31,47257,0.0,0.0,-3.65,-4.41,-4.45,0,*57
1545940994.5,47258,0.0,0.0,-3.65,-4.45,-4.45,0,*5C
1545940995.7,47259,0.0,0.0,-3.65,-4.41,-4.41,0,*5D
1545940996.9,47260,0.0,0.0,-3.65,-4.41,-4.33,0,*52
1545940998.12,47261,0.0,0.0,-3.67,-4.45,-4.45,0,*54
1545940999.32,47262,0.0,0.0,-3.65,-4.41,-4.41,0,*55
1545941000.52,47263,0.0,0.0,-3.65,-4.41,-4.41,0,*54
1545941001.73,47264,0.0,0.0,-3.67,-4.45,-4.45,0,*51
1545941002.93,47265,0.0,0.0,-3.65,-4.41,-4.41,0,*52
1545941004.13,47266,0.0,0.0,-3.65,-4.41,-4.33,0,*54
1545941005.33,47267,0.0,0.0,-3.65,-4.41,-4.33,0,*55
1545941006.53,47268,0.0,0.0,-3.65,-4.41,-4.41,0,*5F
1545941007.76,47269,0.0,0.0,-3.67,-4.41,-4.41,0,*5C
1545941008.98,47270,0.0,0.0,-3.67,-4.45,-4.41,0,*50
1545941010.2,47271,0.0,0.0,-3.67,-4.41,-4.33,0,*50
1545941011.4,47272,0.0,0.0,-3.65,-4.41,-4.41,0,*54
1545941012.63,47273,0.0,0.0,-3.67,-4.41,-4.41,0,*57
1545941013.83,47274,0.0,0.0,-3.65,-4.41,-4.45,0,*56
1545941015.03,47275,0.0,0.0,-3.65,-4.41,-4.33,0,*56
1545941016.23,47276,0.0,0.0,-3.65,-4.41,-4.41,0,*50
1545941017.45,47277,0.0,0.0,-3.67,-4.41,-4.41,0,*53
1545941018.65,47278,0.0,0.0,-3.65,-4.41,-4.41,0,*5E
1545941019.88,47279,0.0,0.0,-3.67,-4.41,-4.45,0,*59
1545941021.11,47280,0.0,0.0,-3.67,-4.33,-4.41,0,*5E
1545941022.33,47281,0.0,0.0,-3.67,-4.33,-4.33,0,*5A
1545941023.54,47282,0.0,0.0,-3.65,-4.33,-4.41,0,*5E
1545941024.74,47283,0.0,0.0,-3.65,-4.41,-4.41,0,*5A
1545941025.94,47284,0.0,0.0,-3.65,-4.33,-4.41,0,*58
1545941027.14,47285,0.0,0.0,-3.65,-4.45,-4.41,0,*58
1545941028.36,47286,0.0,0.0,-3.67,-4.41,-4.33,0,*58
1545941029.57,47287,0.0,0.0,-3.65,-4.33,-4.45,0,*5F
1545941030.79,47288,0.0,0.0,-3.67,-4.41,-4.41,0,*53
1545941032.02,47289,0.0,0.0,-3.67,-4.41,-4.41,0,*52
1545941033.24,47290,0.0,0.0,-3.67,-4.41,-4.41,0,*5A
1545941034.44,47291,0.0,0.0,-3.65,-4.41,-4.41,0,*59
1545941035.64,47292,0.0,0.0,-3.65,-4.45,-4.41,0,*5E
1545941036.84,47293,0.0,0.0,-3.65,-4.41,-4.41,0,*5B
1545941038.07,47294,0.0,0.0,-3.67,-4.41,-4.41,0,*5E
1545941039.29,47295,0.0,0.0,-3.67,-4.41,-4.41,0,*5F
1545941040.51,47296,0.0,0.0,-3.67,-4.45,-4.41,0,*58
1545941041.71,47297,0.0,0.0,-3.65,-4.41,-4.41,0,*5F
1545941042.94,47298,0.0,0.0,-3.67,-4.41,-4.33,0,*57
1545941044.14,47299,0.0,0.0,-3.65,-4.41,-4.41,0,*51
1545941045.34,47300,0.0,0.0,-3.65,-4.41,-4.41,0,*50
1545941046.56,47301,0.0,0.0,-3.67,-4.41,-4.41,0,*53
1545941047.79,47302,0.0,0.0,-3.67,-4.41,-4.41,0,*50
1545941048.98,47303,0.0,0.0,-3.65,-4.45,-4.41,0,*57
1545941050.2,47304,0.0,0.0,-3.67,-4.45,-4.45,0,*56
1545941051.43,47305,0.0,0.0,-3.67,-4.41,-4.41,0,*57
1545941052.63,47306,0.0,0.0,-3.65,-4.41,-4.33,0,*53
1545941053.85,47307,0.0,0.0,-3.67,-4.41,-4.41,0,*55
1545941055.07,47308,0.0,0.0,-3.67,-4.41,-4.45,0,*5E
1545941056.27,47309,0.0,0.0,-3.65,-4.41,-4.33,0,*5C
1545941057.5,47310,0.0,0.0,-3.67,-4.41,-4.41,0,*53
1545941058.73,47311,0.0,0.0,-3.67,-4.33,-4.41,0,*57
1545941059.93,47312,0.0,0.0,-3.65,-4.33,-4.41,0,*56
1545941061.16,47313,0.0,0.0,-3.67,-4.41,-4.41,0,*50
1545941062.39,47314,0.0,0.0,-3.67,-4.41,-4.41,0,*57
1545941063.61,47315,0.0,0.0,-3.67,-4.41,-4.33,0,*53
1545941064.83,47316,0.0,0.0,-3.67,-4.45,-4.41,0,*51
1545941066.06,47317,0.0,0.0,-3.67,-4.41,-4.41,0,*54
1545941067.29,47318,0.0,0.0,-3.67,-4.33,-4.41,0,*5E
1545941068.48,47319,0.0,0.0,-3.65,-4.45,-4.45,0,*58
1545941069.71,47320,0.0,0.0,-3.67,-4.41,-4.41,0,*50
1545941070.93,47321,0.0,0.0,-3.67,-4.41,-4.41,0,*51
1545941072.13,47322,0.0,0.0,-3.65,-4.41,-4.41,0,*50
1545941073.36,47323,0.0,0.0,-3.67,-4.41,-4.41,0,*53
1545941074.58,47324,0.0,0.0,-3.67,-4.41,-4.33,0,*51
1545941075.78,47325,0.0,0.0,-3.65,-4.41,-4.33,0,*52
1545941077.01,47326,0.0,0.0,-3.67,-4.33,-4.41,0,*53
1545941078.24,47327,0.0,0.0,-3.67,-4.41,-4.41,0,*57
1545941079.44,47328,0.0,0.0,-3.65,-4.41,-4.41,0,*5A
1545941080.64,47329,0.0,0.0,-3.65,-4.41,-4.41,0,*5B
1545941081.87,47330,0.0,0.0,-3.67,-4.41,-4.41,0,*51
1545941083.09,47331,0.0,0.0,-3.67,-4.41,-4.41,0,*50
1545941084.31,47332,0.0,0.0,-3.67,-4.45,-4.41,0,*57
1545941085.54,47333,0.0,0.0,-3.67,-4.41,-4.41,0,*52
1545941086.73,47334,0.0,0.0,-3.65,-4.45,-4.45,0,*57
1545941087.96,47335,0.0,0.0,-3.67,-4.41,-4.41,0,*54
1545941089.18,47336,0.0,0.0,-3.67,-4.45,-4.41,0,*53
1545941090.4,47337,0.0,0.0,-3.67,-4.45,-4.41,0,*52
1545941091.62,47338,0.0,0.0,-3.67,-4.45,-4.41,0,*5D
1545941092.82,47339,0.0,0.0,-3.65,-4.41,-4.41,0,*5A
1545941094.04,47340,0.0,0.0,-3.67,-4.41,-4.45,0,*52
1545941095.26,47341,0.0,0.0,-3.67,-4.45,-4.41,0,*53
1545941096.48,47342,0.0,0.0,-3.67,-4.41,-4.41,0,*54
1545941097.71,47343,0.0,0.0,-3.67,-4.41,-4.41,0,*55
1545941098.91,47344,0.0,0.0,-3.65,-4.41,-4.41,0,*50
1545941100.1,47345,0.0,0.0,-3.69,-4.45,-4.45,0,*5D
1545941101.33,47346,0.0,0.0,-3.67,-4.41,-4.33,0,*55
1545941102.56,47347,0.0,0.0,-3.67,-4.33,-4.41,0,*54
1545941103.76,47348,0.0,0.0,-3.65,-4.41,-4.33,0,*59
1545941104.98,47349,0.0,0.0,-3.67,-4.41,-4.41,0,*5F
1545941106.18,47350,0.0,0.0,-3.65,-4.41,-4.41,0,*55
1545941107.41,47351,0.0,0.0,-3.67,-4.41,-4.41,0,*56
1545941108.63,47352,0.0,0.0,-3.67,-4.41,-4.45,0,*51
1545941109.85,47353,0.0,0.0,-3.67,-4.45,-4.45,0,*54
1545941111.07,47354,0.0,0.0,-3.67,-4.41,-4.41,0,*53
1545941112.29,47355,0.0,0.0,-3.67,-4.45,-4.41,0,*56
1545941113.51,47356,0.0,0.0,-3.67,-4.45,-4.41,0,*55
1545941114.74,47357,0.0,0.0,-3.67,-4.41,-4.41,0,*50
1545941115.93,47358,0.0,0.0,-3.69,-4.45,-4.37,0,*54
1545941117.16,47359,0.0,0.0,-3.67,-4.41,-4.45,0,*5A
1545941118.38,47360,0.0,0.0,-3.67,-4.41,-4.45,0,*50
1545941119.61,47361,0.0,0.0,-3.67,-4.41,-4.41,0,*55
1545941120.83,47362,0.0,0.0,-3.67,-4.45,-4.41,0,*52
1545941122.05,47363,0.0,0.0,-3.67,-4.41,-4.45,0,*53
1545941123.27,47364,0.0,0.0,-3.67,-4.45,-4.41,0,*54
1545941124.48,47365,0.0,0.0,-3.67,-4.45,-4.45,0,*51
1545941125.7,47366,0.0,0.0,-3.67,-4.41,-4.45,0,*56
1545941126.93,47367,0.0,0.0,-3.67,-4.41,-4.41,0,*53
1545941128.15,47368,0.0,0.0,-3.67,-4.41,-4.45,0,*58
1545941129.37,47369,0.0,0.0,-3.67,-4.45,-4.41,0,*59
1545941130.6,47370,0.0,0.0,-3.67,-4.41,-4.45,0,*51
1545941131.82,47371,0.0,0.0,-3.67,-4.45,-4.41,0,*50
1545941133.04,47372,0.0,0.0,-3.67,-4.45,-4.41,0,*53
1545941134.26,47373,0.0,0.0,-3.67,-4.45,-4.41,0,*52
1545941135.47,47374,0.0,0.0,-3.67,-4.45,-4.45,0,*51
1545941136.69,47375,0.0,0.0,-3.67,-4.45,-4.45,0,*50
1545941137.9,47376,0.0,0.0,-3.67,-4.45,-4.45,0,*53
1545941139.1,47377,0.0,0.0,-3.69,-4.49,-4.45,0,*50
1545941140.31,47378,0.0,0.0,-3.67,-4.45,-4.41,0,*59
1545941141.51,47379,0.0,0.0,-3.69,-4.49,-4.49,0,*52
1545941142.71,47380,0.0,0.0,-3.69,-4.49,-4.49,0,*54
1545941143.9,47381,0.0,0.0,-3.69,-4.45,-4.45,0,*55
1545941145.12,47382,0.0,0.0,-3.67,-4.45,-4.41,0,*5C
1545941146.33,47383,0.0,0.0,-3.67,-4.45,-4.45,0,*59
1545941147.53,47384,0.0,0.0,-3.69,-4.49,-4.49,0,*50
1545941148.72,47385,0.0,0.0,-3.69,-4.49,-4.49,0,*51
1545941149.95,47386,0.0,0.0,-3.67,-4.41,-4.41,0,*5C
1545941151.17,47387,0.0,0.0,-3.67,-4.45,-4.41,0,*59
1545941152.39,47388,0.0,0.0,-3.67,-4.45,-4.41,0,*56
1545941153.58,47389,0.0,0.0,-3.69,-4.37,-4.45,0,*58
1545941154.77,47390,0.0,0.0,-3.69,-4.49,-4.45,0,*59
1545941155.96,47391,0.0,0.0,-3.69,-4.45,-4.45,0,*54
1545941157.15,47392,0.0,0.0,-3.69,-4.45,-4.45,0,*57
1545941158.38,47393,0.0,0.0,-3.67,-4.41,-4.45,0,*5C
1545941159.57,47394,0.0,0.0,-3.69,-4.45,-4.45,0,*51
1545941160.75,47395,0.0,0.0,-3.69,-4.45,-4.45,0,*50
1545941161.95,47396,0.0,0.0,-3.69,-4.49,-4.49,0,*53
1545941163.14,47397,0.0,0.0,-3.69,-4.49,-4.45,0,*5E
1545941164.33,47398,0.0,0.0,-3.69,-4.45,-4.45,0,*5D
1545941165.56,47399,0.0,0.0,-3.67,-4.41,-4.41,0,*52
1545941166.77,47400,0.0,0.0,-3.71,-4.49,-4.45,0,*5E
1545941167.96,47401,0.0,0.0,-3.69,-4.45,-4.49,0,*56
1545941169.15,47402,0.0,0.0,-3.69,-4.45,-4.45,0,*59
1545941170.35,47403,0.0,0.0,-3.69,-4.45,-4.49,0,*54
1545941171.54,47404,0.0,0.0,-3.69,-4.45,-4.45,0,*5F
1545941172.72,47405,0.0,0.0,-3.69,-4.45,-4.45,0,*5E
1545941173.91,47406,0.0,0.0,-3.69,-4.45,-4.45,0,*5D
1545941175.11,47407,0.0,0.0,-3.69,-4.49,-4.45,0,*50
1545941176.3,47408,0.0,0.0,-3.69,-4.45,-4.49,0,*5F
1545941177.49,47409,0.0,0.0,-3.69,-4.49,-4.45,0,*5E
1545941178.68,47410,0.0,0.0,-3.69,-4.45,-4.45,0,*5A
1545941179.87,47411,0.0,0.0,-3.69,-4.45,-4.45,0,*5B
1545941181.08,47412,0.0,0.0,-3.71,-4.45,-4.49,0,*5D
1545941182.28,47413,0.0,0.0,-3.69,-4.49,-4.49,0,*59
1545941183.49,47414,0.0,0.0,-3.71,-4.45,-4.49,0,*5B
1545941184.68,47415,0.0,0.0,-3.69,-4.45,-4.49,0,*53
1545941185.88,47416,0.0,0.0,-3.69,-4.49,-4.49,0,*5C
1545941187.07,47417,0.0,0.0,-3.69,-4.45,-4.49,0,*51
1545941188.27,47418,0.0,0.0,-3.69,-4.49,-4.49,0,*52
1545941189.49,47419,0.0,0.0,-3.67,-4.45,-4.41,0,*59
1545941190.68,47420,0.0,0.0,-3.69,-4.49,-4.49,0,*59
1545941191.9,47421,0.0,0.0,-3.67,-4.45,-4.41,0,*52
1545941193.1,47422,0.0,0.0,-3.69,-4.49,-4.49,0,*5B
1545941194.31,47423,0.0,0.0,-3.71,-4.49,-4.45,0,*5F
1545941195.51,47424,0.0,0.0,-3.69,-4.49,-4.45,0,*51
1545941196.72,47425,0.0,0.0,-3.71,-4.45,-4.45,0,*55
1545941197.91,47426,0.0,0.0,-3.69,-4.45,-4.45,0,*5F
1545941199.12,47427,0.0,0.0,-3.71,-4.49,-4.45,0,*5B
1545941200.31,47428,0.0,0.0,-3.69,-4.45,-4.45,0,*51
1545941201.5,47429,0.0,0.0,-3.69,-4.49,-4.37,0,*59
1545941202.7,47430,0.0,0.0,-3.69,-4.49,-4.37,0,*51
1545941203.93,47431,0.0,0.0,-3.67,-4.41,-4.41,0,*57
1545941205.12,47432,0.0,0.0,-3.69,-4.45,-4.45,0,*5A
1545941206.33,47433,0.0,0.0,-3.71,-4.45,-4.45,0,*52
1545941207.53,47434,0.0,0.0,-3.69,-4.49,-4.49,0,*5C
1545941208.72,47435,0.0,0.0,-3.69,-4.49,-4.45,0,*51
1545941209.91,47436,0.0,0.0,-3.69,-4.45,-4.45,0,*5E
1545941211.1,47437,0.0,0.0,-3.69,-4.45,-4.49,0,*53
1545941212.29,47438,0.0,0.0,-3.69,-4.49,-4.45,0,*5C
1545941213.48,47439,0.0,0.0,-3.69,-4.45,-4.45,0,*51
1545941214.67,47440,0.0,0.0,-3.69,-4.49,-4.45,0,*53
1545941215.87,47441,0.0,0.0,-3.69,-4.45,-4.37,0,*5B
1545941217.09,47442,0.0,0.0,-3.67,-4.41,-4.45,0,*57
1545941218.28,47443,0.0,0.0,-3.69,-4.45,-4.45,0,*5C
1545941219.49,47444,0.0,0.0,-3.71,-4.45,-4.45,0,*52
1545941220.7,47445,0.0,0.0,-3.71,-4.45,-4.45,0,*53
1545941221.91,47446,0.0,0.0,-3.71,-4.49,-4.45,0,*5C
1545941223.13,47447,0.0,0.0,-3.71,-4.49,-4.37,0,*58
1545941224.34,47448,0.0,0.0,-3.71,-4.49,-4.45,0,*52
1545941225.56,47449,0.0,0.0,-3.71,-4.45,-4.45,0,*5F
1545941226.77,47450,0.0,0.0,-3.71,-4.49,-4.45,0,*5B
1545941227.96,47451,0.0,0.0,-3.69,-4.49,-4.49,0,*5F
1545941229.18,47452,0.0,0.0,-3.71,-4.45,-4.49,0,*59
1545941230.39,47453,0.0,0.0,-3.71,-4.49,-4.49,0,*54
1545941231.58,47454,0.0,0.0,-3.69,-4.45,-4.45,0,*5A
1545941232.77,47455,0.0,0.0,-3.69,-4.45,-4.49,0,*57
1545941233.97,47456,0.0,0.0,-3.69,-4.49,-4.49,0,*58
1545941235.16,47457,0.0,0.0,-3.69,-4.49,-4.45,0,*55
1545941236.36,47458,0.0,0.0,-3.69,-4.49,-4.45,0,*5A
1545941237.55,47459,0.0,0.0,-3.69,-4.49,-4.45,0,*5B
1545941238.76,47460,0.0,0.0,-3.71,-4.45,-4.49,0,*58
1545941239.97,47461,0.0,0.0,-3.71,-4.49,-4.45,0,*59
1545941241.18,47462,0.0,0.0,-3.71,-4.45,-4.45,0,*56
1545941242.4,47463,0.0,0.0,-3.71,-4.49,-4.45,0,*5B
1545941243.59,47464,0.0,0.0,-3.69,-4.49,-4.45,0,*55
1545941244.78,47465,0.0,0.0,-3.69,-4.49,-4.45,0,*54
1545941245.97,47466,0.0,0.0,-3.69,-4.45,-4.49,0,*57
1545941247.18,47467,0.0,0.0,-3.71,-4.45,-4.45,0,*53
1545941248.38,47468,0.0,0.0,-3.69,-4.49,-4.49,0,*55
1545941249.6,47469,0.0,0.0,-3.71,-4.49,-4.49,0,*5D
1545941250.79,47470,0.0,0.0,-3.69,-4.49,-4.45,0,*50
1545941252.0,47471,0.0,0.0,-3.71,-4.49,-4.49,0,*54
1545941253.22,47472,0.0,0.0,-3.71,-4.49,-4.45,0,*5B
1545941254.43,47473,0.0,0.0,-3.71,-4.45,-4.49,0,*5A
1545941255.65,47474,0.0,0.0,-3.71,-4.49,-4.49,0,*51
1545941256.86,47475,0.0,0.0,-3.71,-4.49,-4.45,0,*5C
1545941258.05,47476,0.0,0.0,-3.69,-4.49,-4.45,0,*56
1545941259.26,47477,0.0,0.0,-3.71,-4.45,-4.45,0,*52
1545941260.48,47478,0.0,0.0,-3.71,-4.45,-4.49,0,*51
1545941261.69,47479,0.0,0.0,-3.71,-4.45,-4.49,0,*50
1545941262.88,47480,0.0,0.0,-3.69,-4.45,-4.45,0,*53
1545941264.07,47481,0.0,0.0,-3.69,-4.45,-4.49,0,*5E
1545941265.29,47482,0.0,0.0,-3.71,-4.49,-4.49,0,*58
1545941266.5,47483,0.0,0.0,-3.71,-4.49,-4.49,0,*59
1545941267.72,47484,0.0,0.0,-3.71,-4.49,-4.45,0,*52
1545941268.93,47485,0.0,0.0,-3.71,-4.49,-4.45,0,*53
1545941270.16,47486,0.0,0.0,-3.73,-4.53,-4.53,0,*5E
1545941271.38,47487,0.0,0.0,-3.67,-4.41,-4.41,0,*5A
1545941272.57,47488,0.0,0.0,-3.69,-4.45,-4.45,0,*5B
1545941273.76,47489,0.0,0.0,-3.69,-4.45,-4.45,0,*5A
1545941274.97,47490,0.0,0.0,-3.71,-4.45,-4.49,0,*57
1545941276.19,47491,0.0,0.0,-3.71,-4.49,-4.49,0,*5A
1545941277.4,47492,0.0,0.0,-3.71,-4.45,-4.45,0,*59
1545941278.61,47493,0.0,0.0,-3.71,-4.45,-4.45,0,*58
1545941279.82,47494,0.0,0.0,-3.71,-4.45,-4.49,0,*53
1545941281.03,47495,0.0,0.0,-3.71,-4.45,-4.45,0,*5E
1545941282.24,47496,0.0,0.0,-3.71,-4.45,-4.45,0,*5D
1545941283.45,47497,0.0,0.0,-3.71,-4.45,-4.45,0,*5C
1545941284.65,47498,0.0,0.0,-3.69,-4.49,-4.37,0,*53
1545941285.84,47499,0.0,0.0,-3.69,-4.45,-4.33,0,*5A
1545941287.05,47500,0.0,0.0,-3.71,-4.45,-4.45,0,*53
1545941288.27,47501,0.0,0.0,-3.71,-4.49,-4.45,0,*5E
1545941289.47,47502,0.0,0.0,-3.71,-4.45,-4.45,0,*51
1545941290.67,47503,0.0,0.0,-3.69,-4.37,-4.45,0,*5C
1545941291.86,47504,0.0,0.0,-3.69,-4.45,-4.45,0,*5E
1545941293.07,47505,0.0,0.0,-3.71,-4.45,-4.37,0,*53
1545941294.29,47506,0.0,0.0,-3.71,-4.49,-4.37,0,*5C
1545941295.51,47507,0.0,0.0,-3.71,-4.45,-4.37,0,*51
1545941296.72,47508,0.0,0.0,-3.71,-4.45,-4.37,0,*5E
1545941297.94,47509,0.0,0.0,-3.71,-4.45,-4.37,0,*5F
1545941299.16,47510,0.0,0.0,-3.71,-4.45,-4.37,0,*57
1545941300.35,47511,0.0,0.0,-3.69,-4.45,-4.37,0,*5F
1545941301.56,47512,0.0,0.0,-3.71,-4.45,-4.45,0,*50
1545941302.75,47513,0.0,0.0,-3.69,-4.45,-4.45,0,*58
1545941303.96,47514,0.0,0.0,-3.71,-4.49,-4.45,0,*5A
1545941305.18,47515,0.0,0.0,-3.71,-4.45,-4.37,0,*52
1545941306.39,47516,0.0,0.0,-3.71,-4.45,-4.45,0,*54
1545941307.6,47517,0.0,0.0,-3.71,-4.45,-4.45,0,*55
1545941308.81,47518,0.0,0.0,-3.71,-4.37,-4.45,0,*5F
1545941310.02,47519,0.0,0.0,-3.71,-4.45,-4.45,0,*5B
1545941311.24,47520,0.0,0.0,-3.71,-4.45,-4.49,0,*5D
1545941312.45,47521,0.0,0.0,-3.71,-4.45,-4.45,0,*50
1545941313.66,47522,0.0,0.0,-3.71,-4.45,-4.37,0,*56
1545941314.88,47523,0.0,0.0,-3.71,-4.37,-4.45,0,*57
1545941316.08,47524,0.0,0.0,-3.71,-4.45,-4.45,0,*55
1545941317.29,47525,0.0,0.0,-3.71,-4.45,-4.45,0,*54
1545941318.5,47526,0.0,0.0,-3.71,-4.45,-4.45,0,*57
1545941319.72,47527,0.0,0.0,-3.71,-4.49,-4.37,0,*5F
1545941320.94,47528,0.0,0.0,-3.71,-4.37,-4.37,0,*59
1545941322.16,47529,0.0,0.0,-3.71,-4.45,-4.37,0,*5D
1545941323.38,47530,0.0,0.0,-3.71,-4.45,-4.37,0,*55
1545941324.59,47531,0.0,0.0,-3.71,-4.45,-4.37,0,*54
1545941325.8,47532,0.0,0.0,-3.71,-4.45,-4.49,0,*5E
1545941327.02,47533,0.0,0.0,-3.71,-4.45,-4.37,0,*56
1545941328.23,47534,0.0,0.0,-3.71,-4.45,-4.45,0,*54
1545941329.44,47535,0.0,0.0,-3.71,-4.45,-4.45,0,*55
1545941330.64,47536,0.0,0.0,-3.69,-4.37,-4.37,0,*5F
1545941331.83,47537,0.0,0.0,-3.69,-4.37,-4.45,0,*5B
1545941333.02,47538,0.0,0.0,-3.69,-4.49,-4.45,0,*5D
1545941334.23,47539,0.0,0.0,-3.71,-4.45,-4.45,0,*59
1545941335.43,47540,0.0,0.0,-3.69,-4.37,-4.37,0,*5E
1545941336.65,47541,0.0,0.0,-3.71,-4.37,-4.45,0,*53
1545941337.86,47542,0.0,0.0,-3.71,-4.45,-4.37,0,*50
1545941339.07,47543,0.0,0.0,-3.71,-4.49,-4.45,0,*58
1545941340.29,47544,0.0,0.0,-3.71,-4.37,-4.37,0,*53
1545941341.49,47545,0.0,0.0,-3.69,-4.45,-4.37,0,*5E
1545941342.68,47546,0.0,0.0,-3.69,-4.45,-4.45,0,*58
1545941343.9,47547,0.0,0.0,-3.71,-4.37,-4.37,0,*50
1545941345.11,47548,0.0,0.0,-3.71,-4.45,-4.37,0,*5A
1545941346.33,47549,0.0,0.0,-3.71,-4.45,-4.37,0,*5B
1545941347.54,47550,0.0,0.0,-3.71,-4.45,-4.33,0,*57
1545941348.74,47551,0.0,0.0,-3.69,-4.45,-4.37,0,*5B
1545941349.95,47552,0.0,0.0,-3.71,-4.45,-4.37,0,*51
1545941351.17,47553,0.0,0.0,-3.71,-4.37,-4.37,0,*55
1545941352.37,47554,0.0,0.0,-3.69,-4.37,-4.45,0,*5E
1545941353.58,47555,0.0,0.0,-3.71,-4.49,-4.45,0,*5F
1545941354.8,47556,0.0,0.0,-3.71,-4.45,-4.37,0,*55
1545941356.01,47557,0.0,0.0,-3.71,-4.45,-4.37,0,*54
1545941357.23,47558,0.0,0.0,-3.71,-4.45,-4.37,0,*5B